Tracking 19572 objects as of 23-Feb-2019
HD Live streaming from Space Station
objects crossing your sky now

ELECTRON R/B

Track ELECTRON R/B now!
10-day predictions


NORAD ID: 43166
Int'l Code: 2018-010D
Perigee: 227.3 km
Apogee: 266.7 km
Inclination: 82.9 °
Period: 89.3 minutes
Semi major axis: 6617 km
RCS: Unknown
Launch date: January 21, 2018
Source: New Zealand (NZ)
Launch site: Rocket Lab Launch Complex (RLLC)

ELECTRON R/B
Note: This is a ROCKET BODY
aabbcc
Your satellite tracking list
Your tracking list is empty




NASA's NSSDC Master Catalog

Two Line Element Set (TLE):
1 43166U 18010D   19053.92442968 +.00559920 -12691-5 +47304-3 0  9998
2 43166 082.8851 095.1398 0029779 151.1477 209.1463 16.12554793062476
Source of the keplerian elements: AFSPC